Regional Weather Roundup
Issued by NWS

Home | Current Version | Previous Version | Text Only | Print | Product List | Glossary Off
Versions: 1 2 3 4 5 6 7 8 9 10 11 12 13 14 15 16 17 18 19 20 21 22 23 24 25 26 27 28 29 30 31 32 33 34 35 36 37 38 39 40 41 42 43 44 45 46 47 48 49 50

000
ASUS43 KMKX 262014
RWRWI

WISCONSIN REGIONAL WEATHER ROUNDUP
NATIONAL WEATHER SERVICE MILWAUKEE/SULLIVAN WI
300 PM CDT TUE MAY 26 2015

NOTE: "FAIR" INDICATES FEW OR NO CLOUDS BELOW 12,000 FEET WITH NO
SIGNIFICANT WEATHER AND/OR OBSTRUCTIONS TO VISIBILITY.

WIZ001-002-006>008-014>016-023>028-262100-
NORTHWEST WISCONSIN

CITY           SKY/WX    TMP DP  RH WIND       PRES   REMARKS
SUPERIOR ARPT  CLOUDY    57  52  85 NE8       29.82F
ASHLAND        CLOUDY    57  52  83 E9        29.84S
HAYWARD        LGT RAIN  57  53  86 N12       29.80F
SIREN          RAIN      57  55  93 N9G17     29.79F
CUMBERLAND     LGT RAIN  59  57  94 N12       29.77F
RICE LAKE      LGT RAIN  63  60  90 N9        29.76F
CHETEK         CLOUDY    65  64  96 CALM      29.75F
LADYSMITH      RAIN      65  61  88 CALM      29.78F
EAU CLAIRE     CLOUDY    65  60  84 N6        29.72F
MENOMONIE      LGT RAIN  66  62  87 NE5       29.74S
NEW RICHMOND   LGT RAIN  61  61 100 N9        29.76F
OSCEOLA        LGT RAIN  59  59 100 N6        29.79F
$$

WIZ003>005-009-010-017-018-262100-
NORTH CENTRAL WISCONSIN

CITY           SKY/WX    TMP DP  RH WIND       PRES   REMARKS
MANITOWISH WTR DRIZZLE   63  60  91 NE7       29.79F
ARBOR VITAE    LGT RAIN  66  62  87 CALM      29.79F
WOODRUFF       LGT RAIN  66  62  87 CALM      29.79F
RHINELANDER    LGT RAIN  67  62  84 S5        29.79F
EAGLE RIVER    LGT RAIN  69  59  70 CALM      29.78F
LAND O LAKES   CLOUDY    69  60  72 N6        29.79F
PHILLIPS       LGT RAIN  65  62  91 CALM      29.77F
TOMAHAWK       LGT RAIN  61  60  94 CALM      29.79F
MEDFORD        LGT RAIN  62  61  94 NE6       29.73F
MERRILL        LGT RAIN  62  62  99 NE6       29.78F
$$

WIZ029-030-035-036-043>047-262100-
CENTRAL WISCONSIN

CITY           SKY/WX    TMP DP  RH WIND       PRES   REMARKS
WAUSAU         LGT RAIN  64  62  93 N7        29.72F
MOSINEE        LGT RAIN  63  63 100 N9        29.73F
MARSHFIELD     LGT RAIN  66  60  81 E13       29.70F
STEVENS POINT  LGT RAIN  62  61  96 NE10      29.73F
WAUPACA        LGT RAIN  70  69  97 E15       29.71F
WAUTOMA        HVY RAIN  67  67 100 SE6       29.70F VSB 1
WISC RAPIDS    RAIN      64  60  87 E8        29.71F
CAMP DOUGLAS   LGT RAIN  64  64 100 NE9       29.66F FOG
$$

WIZ011>013-019>022-031-037>040-048>050-262100-
NORTHEAST WISCONSIN

CITY           SKY/WX    TMP DP  RH WIND       PRES   REMARKS
ANTIGO         LGT RAIN  64  63  97 CALM      29.78F
SHAWANO        LGT RAIN  67  63  86 NE6       29.74F
OCONTO         CLOUDY    65  65 100 SE10      29.76F
STURGEON BAY   CLOUDY    63  59  88 S9G18     29.81F
GREEN BAY      LGT RAIN  69  65  86 SE17      29.75F FOG
MANITOWOC      LGT RAIN  55  55 100 SE9       29.75F VSB 3/4
APPLETON       LGT RAIN  68  66  94 SE14      29.74F FOG
CLINTONVILLE   HVY RAIN  68  66  94 SE7       29.72F
OSHKOSH        RAIN      66  64  93 E12G22    29.69F FOG
$$

WIZ032>034-041-042-053>061-262100-
SOUTHWEST WISCONSIN

CITY           SKY/WX    TMP DP  RH WIND       PRES   REMARKS
LA CROSSE      HVY RAIN  66  61  84 NE7       29.65F
SPARTA         LGT RAIN  66  62  86 E7        29.67F
VIROQUA        CLOUDY    64  64 100 E9        29.66F
BOSCOBEL       CLOUDY    73  63  70 S7        29.65F
PRAIRIE DU CHI LGT RAIN  66  65  96 S5        29.64S
PLATTEVILLE    CLOUDY    71  65  81 S15G21    29.67F
$$

WIZ056-057-062-063-064-067-068-262100-
SOUTH CENTRAL WISCONSIN

CITY           SKY/WX    TMP DP  RH WIND       PRES   REMARKS
REEDSBURG      CLOUDY    67  66  94 CALM      29.66F
BARABOO/DELLS  CLOUDY    67  65  94 S6        29.67F
LONE ROCK      PTSUNNY   73  62  68 S12       29.66F
MINERAL POINT  CLOUDY    72  63  73 S12       29.68F
MADISON        PTSUNNY   72  61  68 S13G18    29.68F
MIDDLETON      CLOUDY    74  62  67 SW12      29.68F
WATERTOWN      CLOUDY    74  68  82 S18G26    29.69S
MONROE         PTSUNNY   72  63  73 S17G23    29.70F
JANESVILLE     PTSUNNY   77  63  61 SW23G29   29.70F
$$

WIZ051-052-058>065-066-070>072-262100-
SOUTHEAST WISCONSIN

CITY           SKY/WX    TMP DP  RH WIND       PRES   REMARKS
MILWAUKEE      CLOUDY    69  67  93 S10       29.73F
WAUKESHA       PTSUNNY   70  64  83 S16       29.74F
MILWAUKEE/TIMM CLOUDY    66  63  88 S10G17    29.75F FOG
RACINE         CLOUDY    64  62  93 S9        29.76F FOG
BURLINGTON     CLOUDY    72  63  73 S16G24    29.74S
KENOSHA        CLOUDY    74  66  76 SW18G26   29.75S
FOND DU LAC    CLOUDY    67  63  87 SE17G26   29.69F
SHEBOYGAN      LGT RAIN  62  61  96 SE12      29.73F FOG
WEST BEND      CLOUDY    64  63  94 SE9       29.72F FOG
JUNEAU         CLOUDY    70  66  87 SE20G26   29.70F
$$

LSZ147-162-262100-
LAKE SUPERIOR

STATION/POSITION TIME  TEMP    WIND        PRES    WAVE
                       AIR SEA DIR/SP/G            HT/PER
                 (UTC) (F)     (DEG/KT/KT) (MB)    (FT/S)
W MID LAKE BUOY  1950   40 37   30/  2/  2   N/A     0
DEVILS ISLAND    2000   47      30/  7/  8   N/A
PORT WING        1840   46      30/  5/  7   N/A
SAXON HARBOR     1900   49        CALM       N/A
$$

LMZ867-665-643>646-262100-
LAKE MICHIGAN

STATION/POSITION TIME  TEMP    WIND        PRES    WAVE
                       AIR SEA DIR/SP/G            HT/PER
                 (UTC) (F)     (DEG/KT/KT) (MB)    (FT/S)
CHAMBERS ISLAND  1900   63     140/  9/ 18   N/A
N MID LAKE BUOY  1950   47 37  220/  6/  8   N/A     3/ 5
NORTHPORT PIER   1900   56     150/ 10/ 17   N/A
SISTER BAY       1918   63     190/ 14/ 19   N/A
ALGOMA LAKESHORE 1938          200/  8/  9   N/A
KEWAUNEE LAKESHO 1900   50     180/ 10/ 12   N/A
SHEBOYGAN LAKESH 2000   55     120/ 22/ 23 1063.0
PORT WASHINGTON  1900   54     140/ 14/ 17 1088.0
ATWATER BUOY     1900   53 47  170/  6/ 10   N/A
MILWAUKEE LAKESH 1900   54     140/  3/  7   N/A
S MID LAKE BUOY  1950   50 38  180/ 16/ 17 1083.0
KENOSHA   LAKESH 2000   58     190/ 12/ 17 1071.0F
$$

TC  - TEMPERATURE IN CELSIUS
VSB - VISIBILITY IN STATUTE MILES
WCI - WIND CHILL INDEX
HX  - HEAT INDEX



USA.gov is the U.S. government's official web portal to all federal, state and local government web resources and services.